Weather Service Report


601 
ASUS43 KLSX 262010
RWRMO 

WEATHER SUMMARY FOR MISSOURI
NATIONAL WEATHER SERVICE SPRINGFIELD MO
300 PM CDT TUE JUL 26 2016

NOTE: "FAIR" INDICATES FEW OR NO CLOUDS BELOW 12,000 FEET WITH NO
       SIGNIFICANT WEATHER AND/OR OBSTRUCTIONS TO VISIBILITY.
       CURRENT SKY AND/OR WEATHER CONDITIONS ARE NOT AVAILABLE FOR
       CHILLICOTHE AND FARMINGTON.

MOZ001>031-035>038-043-044-053-054-262100-
...NORTHERN AND WESTERN MISSOURI...
  
CITY           SKY/WX    TMP DP  RH WIND       PRES   REMARKS
KANSAS CTY INT MOSUNNY   87  66  49 NE5       30.03F                  
KANSAS C DTWN  SUNNY     88  66  48 E7        30.00F HX  90           
LEE'S SUMMIT   MOSUNNY   85  68  56 E8        30.03F                  
ST JOSEPH      SUNNY     86  67  52 CALM      30.02F                  
CHILLICOTHE      N/A     87  65  47 E3        30.03F                  
KIRKSVILLE     SUNNY     86  63  45 VRB3      30.04F                  
     
$$
MOZ066>068-077>081-088>096-101>105-262100-
...SOUTHWEST MISSOURI...
  
CITY           SKY/WX    TMP DP  RH WIND       PRES   REMARKS
SPRINGFIELD    PTSUNNY   87  73  62 NE14      29.99S HX  94           
JOPLIN         MOSUNNY   87  76  69 N9        29.97F HX  97           
BRANSON        RAIN      77  72  83 SE17G29   30.02S                  
               
$$
MOZ032>034-039>042-045>050-055>058-069>072-262100-
...CENTRAL MISSOURI...  
  
CITY           SKY/WX    TMP DP  RH WIND       PRES   REMARKS
COLUMBIA       MOSUNNY   86  71  60 NE5       30.01F HX  91           
JEFFERSON CITY PTSUNNY   86  70  58 VRB3      29.98F HX  90           
ROLLA          PTSUNNY   88  74  63 N6        29.99F HX  96           
SEDALIA        SUNNY     88  71  57 VRB5      30.02F HX  94           
WHITEMAN AFB   PTSUNNY   85  70  59 NE7       30.00F HX  90           
OSAGE BEACH    MOSUNNY   85  73  67 VRB3      30.00F HX  91           
               
$$
MOZ051-052-059>065-262100-
...EAST CENTRAL MISSOURI...
  
CITY           SKY/WX    TMP DP  RH WIND       PRES   REMARKS
ST LOUIS INTL  MOSUNNY   90  72  55 N7        29.99F HX  97           
SPIRIT OF STL  PTSUNNY   88  75  65 NE8       29.97F HX  97           
ST CHARLES     MOSUNNY   88  76  67 N8        29.98F HX  99           
                   
$$
MOZ072>076-082>087-097>100-106>115-262100-
...SOUTH CENTRAL AND SOUTHEAST MISSOURI...
  
CITY           SKY/WX    TMP DP  RH WIND       PRES   REMARKS
CAPE GIRARDEAU CLOUDY    79  74  84 E12       29.98S                  
FARMINGTON     CLOUDY    77  73  87 CALM      30.02S                  
POPLAR BLUFF   MOSUNNY   89  75  63 W5        29.95S HX  99           
WEST PLAINS    CLOUDY    77  72  84 S3        30.04S                  
                                       
$$
  

Return to Home page


Western Regional Climate Center, wrcc@dri.edu